Temp
-7 -7 -7 -7 -7 -7 -7 -7 -7 -7 -7 -7 -7 -7 -7 -7 -7 -7 -7 -7 -7 -7 -7 -7 -7 -7 -7 -7 -7 -7 -7 -7 -7 -7 -7 -7 -7 -7 -7 -7 -7 -7 -7
-7 -7 -7 -7 -7 -7 -7 -7 -7 -7 -7 -7 -8 -8 -8 -8 -7 -7 -7 -7 -7 -7 -7 -7 -7 -7 -7 -7 -7 -7 -7 -7 -7 -7 -7 -7 -7 -7 -7 -7 -7 -7 -7
-7 -7 -7 -7 -7 -7 -7 -7 -7 -7 -7 -8 -8 -8 -8 -8 -8 -7 -7 -7 -7 -7 -7 -7 -7 -7 -7 -7 -7 -7 -7 -7 -7 -7 -7 -7 -6 -6 -7 -7 -8 -8 -8
-8 -7 -7 -7 -7 -7 -7 -7 -7 -7 -7 -8 -8 -8 -8 -8 -8 -8 -7 -7 -7 -7 -7 -7 -7 -7 -7 -7 -7 -7 -7 -7 -7 -7 -7 -6 -6 -6 -7 -8 -8 -9 -9
-8 -8 -8 -7 -7 -7 -7 -7 -7 -7 -7 -8 -8 -8 -8 -8 -8 -8 -8 -8 -7 -7 -7 -7 -8 -7 -7 -7 -7 -7 -7 -7 -7 -7 -7 -7 -7 -7 -7 -8 -8 -9 -10
-8 -8 -8 -8 -8 -8 -8 -8 -8 -8 -8 -8 -8 -8 -8 -8 -8 -8 -8 -8 -8 -8 -8 -8 -8 -8 -8 -8 -8 -8 -7 -7 -7 -7 -7 -7 -7 -8 -8 -8 -8 -9 -10
-8 -8 -8 -8 -8 -8 -8 -8 -8 -8 -8 -8 -8 -8 -8 -8 -8 -8 -8 -8 -8 -8 -8 -8 -8 -8 -8 -8 -8 -8 -8 -7 -7 -7 -7 -7 -8 -8 -8 -8 -8 -10 -11
-9 -9 -8 -8 -8 -8 -8 -8 -8 -8 -8 -8 -8 -8 -8 -9 -9 -9 -8 -8 -8 -8 -8 -8 -8 -8 -8 -8 -8 -8 -8 -8 -7 -7 -7 -8 -8 -8 -9 -9 -9 -10 -11
-9 -9 -9 -8 -8 -8 -8 -8 -8 -8 -8 -9 -9 -9 -9 -9 -9 -9 -9 -9 -9 -9 -8 -8 -8 -8 -8 -8 -8 -8 -8 -8 -8 -8 -8 -8 -8 -9 -9 -9 -10 -11 -11
-9 -9 -9 -9 -9 -9 -9 -9 -9 -9 -9 -9 -9 -9 -9 -9 -9 -9 -9 -9 -9 -9 -9 -9 -9 -9 -9 -8 -8 -8 -8 -8 -8 -8 -8 -8 -8 -9 -9 -9 -10 -10 -11
-10 -10 -10 -10 -9 -9 -9 -9 -9 -9 -9 -9 -9 -9 -10 -10 -10 -10 -9 -10 -9 -9 -9 -9 -9 -9 -9 -9 -9 -8 -8 -8 -8 -8 -8 -8 -9 -9 -10 -10 -10 -11 -11
-10 -10 -10 -11 -10 -9 -9 -9 -9 -9 -10 -10 -10 -10 -10 -10 -10 -10 -10 -10 -9 -9 -9 -9 -9 -9 -9 -9 -9 -9 -9 -9 -8 -9 -9 -9 -9 -9 -10 -10 -10 -11 -11
-11 -10 -10 -10 -10 -10 -10 -10 -10 -10 -10 -10 -10 -10 -10 -10 -10 -10 -10 -10 -10 -10 -10 -10 -9 -9 -9 -9 -9 -9 -9 -9 -9 -9 -9 -9 -9 -9 -10 -10 -10 -11 -11
-10 -10 -11 -11 -10 -10 -10 -10 -10 -10 -10 -10 -10 -11 -11 -11 -10 -10 -10 -10 -10 -10 -10 -10 -10 -9 -9 -9 -9 -9 -9 -9 -9 -9 -9 -10 -10 -10 -10 -11 -11 -11 -11
-11 -11 -11 -11 -11 -10 -10 -10 -10 -10 -10 -10 -11 -11 -11 -11 -11 -11 -11 -10 -10 -10 -10 -10 -10 -10 -10 -9 -9 -9 -9 -9 -10 -10 -10 -10 -10 -10 -10 -11 -11 -11 -11
-12 -11 -11 -11 -11 -10 -10 -10 -10 -10 -10 -10 -11 -11 -11 -12 -11 -11 -11 -11 -11 -10 -10 -10 -10 -10 -10 -10 -10 -10 -10 -10 -10 -10 -10 -10 -10 -10 -10 -11 -11 -11 -12
-12 -12 -12 -12 -11 -11 -11 -11 -11 -11 -11 -11 -11 -11 -12 -12 -12 -11 -11 -11 -11 -11 -10 -10 -10 -10 -10 -10 -10 -10 -10 -10 -10 -10 -10 -10 -10 -11 -10 -10 -11 -11 -12
-13 -12 -12 -12 -12 -11 -11 -11 -11 -11 -11 -11 -11 -11 -12 -12 -12 -12 -11 -11 -11 -11 -11 -11 -10 -10 -10 -10 -10 -10 -10 -10 -10 -10 -10 -11 -11 -11 -11 -11 -11 -11 -11
-13 -13 -12 -12 -12 -12 -11 -11 -11 -11 -11 -11 -11 -12 -12 -12 -12 -12 -11 -11 -11 -11 -11 -11 -11 -11 -11 -10 -10 -10 -11 -10 -10 -11 -11 -11 -11 -11 -11 -11 -11 -11 -12
-13 -13 -13 -12 -12 -12 -11 -11 -11 -11 -11 -11 -11 -11 -12 -12 -12 -12 -12 -11 -11 -11 -11 -11 -11 -11 -11 -11 -11 -11 -11 -11 -11 -11 -11 -11 -11 -11 -12 -12 -12 -12 -12
-13 -13 -13 -13 -12 -12 -12 -12 -11 -12 -11 -11 -11 -12 -12 -12 -12 -12 -12 -11 -12 -12 -11 -11 -11 -11 -11 -11 -11 -11 -11 -11 -11 -12 -12 -12 -12 -12 -12 -12 -12 -12 -12
-13 -13 -13 -13 -13 -12 -12 -12 -12 -11 -11 -11 -11 -12 -12 -12 -12 -12 -12 -12 -12 -12 -11 -12 -12 -12 -12 -12 -11 -11 -11 -12 -12 -12 -12 -12 -12 -12 -12 -12 -12 -12 -13
-13 -13 -13 -13 -12 -12 -12 -12 -12 -11 -11 -11 -11 -12 -12 -12 -12 -12 -12 -12 -12 -12 -12 -12 -12 -12 -12 -12 -12 -12 -12 -12 -12 -12 -13 -13 -13 -13 -13 -13 -13 -13 -13
-14 -14 -13 -13 -12 -12 -13 -12 -12 -11 -11 -11 -11 -12 -12 -12 -13 -13 -13 -12 -12 -12 -12 -12 -12 -12 -12 -12 -12 -12 -12 -12 -12 -13 -13 -13 -13 -13 -13 -13 -13 -13 -13
-13 -13 -13 -13 -13 -13 -12 -12 -12 -11 -11 -12 -12 -12 -12 -13 -13 -13 -13 -13 -13 -13 -13 -12 -12 -13 -12 -12 -12 -12 -12 -13 -13 -13 -13 -13 -13 -13 -13 -14 -14 -13 -13
-13 -13 -13 -14 -13 -13 -12 -11 -12 -12 -12 -12 -12 -12 -13 -13 -13 -13 -13 -13 -13 -13 -13 -13 -13 -13 -13 -13 -13 -13 -13 -13 -13 -13 -13 -13 -13 -14 -14 -14 -14 -14 -14
Height
5882 5883 5883 5884 5885 5885 5885 5885 5885 5884 5885 5885 5886 5886 5886 5886 5885 5885 5884 5883 5882 5881 5879 5878 5878 5877 5876 5876 5876 5876 5875 5874 5874 5873 5872 5871 5869 5868 5867 5865 5864 5862 5860
5881 5882 5883 5884 5885 5885 5885 5885 5885 5885 5885 5886 5886 5886 5886 5886 5886 5885 5883 5882 5881 5880 5879 5878 5878 5877 5877 5876 5876 5875 5874 5874 5873 5871 5870 5869 5867 5865 5864 5862 5860 5858 5856
5880 5881 5882 5883 5884 5884 5885 5885 5885 5885 5885 5885 5886 5886 5886 5886 5885 5884 5883 5882 5881 5880 5878 5877 5877 5877 5876 5876 5875 5875 5874 5873 5871 5869 5868 5866 5864 5862 5859 5856 5854 5852 5850
5878 5880 5881 5882 5883 5883 5883 5884 5884 5885 5885 5885 5885 5885 5885 5885 5884 5883 5882 5881 5880 5879 5878 5877 5877 5876 5875 5874 5874 5873 5872 5870 5869 5867 5865 5862 5859 5857 5854 5851 5847 5845 5843
5877 5879 5880 5881 5882 5882 5883 5884 5884 5884 5885 5885 5885 5885 5885 5884 5883 5882 5881 5880 5879 5878 5877 5876 5876 5875 5874 5873 5872 5871 5870 5868 5866 5864 5861 5858 5855 5851 5848 5845 5841 5838 5836
5875 5877 5878 5879 5880 5881 5882 5883 5883 5884 5884 5884 5884 5884 5884 5884 5883 5882 5881 5880 5878 5877 5876 5875 5874 5874 5873 5872 5871 5869 5867 5865 5863 5860 5858 5854 5851 5847 5844 5841 5836 5832 5829
5873 5875 5877 5878 5879 5880 5880 5881 5882 5883 5883 5884 5883 5883 5883 5882 5882 5881 5880 5879 5878 5876 5875 5874 5873 5872 5871 5870 5868 5866 5864 5862 5860 5857 5853 5850 5847 5843 5839 5836 5831 5827 5824
5870 5873 5875 5876 5877 5878 5879 5880 5881 5881 5882 5882 5882 5881 5881 5881 5880 5880 5879 5878 5877 5876 5874 5873 5871 5870 5869 5867 5865 5863 5861 5859 5856 5853 5850 5847 5844 5840 5836 5832 5828 5824 5821
5867 5870 5872 5874 5875 5876 5877 5877 5878 5879 5879 5880 5880 5879 5879 5879 5878 5878 5878 5877 5875 5874 5872 5871 5869 5867 5866 5864 5863 5861 5859 5856 5853 5850 5847 5844 5840 5837 5834 5829 5825 5821 5818
5863 5867 5869 5871 5872 5873 5874 5875 5875 5877 5877 5877 5877 5876 5877 5876 5876 5876 5875 5874 5873 5872 5870 5869 5866 5865 5863 5861 5860 5858 5856 5852 5850 5847 5843 5840 5837 5834 5832 5828 5823 5819 5815
5859 5863 5865 5867 5869 5871 5872 5872 5873 5874 5874 5874 5873 5873 5873 5874 5874 5873 5872 5872 5871 5869 5868 5866 5864 5862 5860 5859 5857 5855 5852 5849 5847 5844 5840 5837 5834 5831 5829 5825 5821 5817 5813
5855 5858 5861 5864 5866 5867 5868 5868 5869 5870 5870 5870 5869 5869 5870 5870 5870 5870 5869 5869 5867 5866 5865 5864 5861 5859 5858 5855 5854 5851 5848 5845 5843 5840 5837 5833 5830 5827 5825 5822 5819 5815 5811
5850 5853 5856 5860 5862 5863 5864 5865 5866 5866 5866 5866 5865 5866 5866 5866 5866 5866 5866 5865 5864 5863 5862 5861 5858 5856 5854 5852 5849 5846 5844 5841 5838 5835 5832 5829 5827 5823 5821 5818 5816 5813 5810
5845 5849 5852 5855 5857 5858 5860 5861 5862 5862 5862 5862 5861 5861 5861 5862 5862 5862 5862 5861 5861 5859 5858 5857 5855 5852 5850 5847 5845 5842 5839 5837 5834 5831 5827 5825 5823 5819 5816 5813 5811 5809 5807
5840 5844 5847 5850 5852 5854 5855 5857 5858 5858 5858 5857 5857 5856 5856 5856 5857 5857 5857 5856 5856 5855 5853 5852 5850 5847 5845 5843 5840 5837 5835 5832 5829 5827 5824 5820 5817 5814 5812 5809 5807 5804 5803
5835 5839 5842 5845 5847 5849 5850 5852 5853 5854 5853 5852 5852 5851 5851 5850 5851 5851 5851 5850 5850 5849 5848 5847 5845 5842 5840 5837 5835 5832 5830 5827 5825 5821 5818 5815 5812 5808 5806 5803 5800 5798 5796
5829 5833 5836 5840 5842 5844 5846 5848 5848 5848 5848 5847 5846 5846 5844 5844 5845 5845 5845 5845 5844 5843 5842 5841 5839 5837 5834 5832 5829 5826 5823 5821 5818 5815 5812 5809 5806 5803 5800 5797 5794 5791 5789
5822 5826 5830 5833 5836 5839 5841 5842 5843 5843 5842 5842 5841 5840 5839 5839 5839 5840 5839 5839 5838 5837 5836 5834 5833 5831 5828 5826 5823 5820 5817 5814 5811 5808 5805 5801 5798 5795 5792 5789 5786 5783 5780
5813 5819 5823 5826 5830 5834 5836 5836 5836 5836 5836 5836 5835 5834 5833 5833 5834 5834 5833 5833 5832 5831 5829 5827 5826 5824 5822 5819 5816 5813 5810 5807 5804 5801 5798 5794 5791 5788 5784 5781 5777 5774 5771
5806 5812 5817 5821 5824 5827 5829 5830 5830 5830 5830 5830 5829 5828 5827 5827 5827 5828 5827 5826 5825 5824 5823 5821 5819 5816 5813 5810 5808 5805 5803 5800 5796 5792 5790 5786 5783 5780 5776 5772 5768 5764 5762
5798 5804 5809 5813 5817 5819 5822 5823 5823 5823 5823 5823 5822 5821 5821 5820 5821 5821 5821 5819 5818 5817 5816 5814 5811 5808 5806 5803 5800 5797 5795 5792 5787 5784 5781 5777 5773 5770 5766 5762 5759 5755 5752
5790 5794 5800 5805 5809 5813 5814 5816 5816 5817 5816 5816 5815 5814 5814 5814 5814 5814 5813 5813 5812 5810 5808 5805 5802 5800 5797 5794 5792 5789 5786 5783 5779 5774 5770 5766 5761 5758 5754 5751 5747 5744 5740
5784 5787 5791 5797 5801 5805 5807 5809 5810 5810 5809 5809 5808 5807 5806 5806 5806 5806 5805 5804 5803 5800 5798 5796 5793 5791 5789 5786 5782 5779 5776 5773 5769 5764 5760 5755 5751 5747 5743 5740 5737 5733 5730
5773 5780 5786 5791 5796 5799 5801 5802 5803 5803 5803 5801 5800 5799 5798 5798 5797 5797 5796 5794 5793 5791 5789 5787 5784 5782 5778 5775 5772 5768 5764 5761 5758 5755 5749 5745 5741 5737 5732 5729 5727 5724 5721
5768 5773 5781 5786 5789 5792 5794 5796 5795 5795 5794 5793 5792 5790 5790 5789 5788 5787 5787 5785 5783 5781 5779 5777 5773 5770 5767 5763 5759 5755 5752 5748 5745 5743 5739 5734 5730 5726 5722 5718 5715 5712 5711
5764 5769 5772 5777 5783 5785 5788 5788 5788 5787 5786 5785 5783 5782 5781 5781 5780 5779 5777 5776 5774 5771 5768 5765 5762 5758 5755 5751 5747 5743 5739 5735 5732 5729 5726 5722 5718 5712 5709 5706 5704 5701 5698
Wind_Speed
7 6 4 3 1 2 3 5 6 5 4 3 3 4 6 8 11 13 15 18 21 20 17 15 13 12 11 11 11 12 14 15 16 18 20 21 23 24 25 25 25 25 25
8 6 4 3 2 1 3 5 5 4 3 3 4 6 8 10 12 14 16 18 19 18 15 13 11 11 11 11 11 13 14 16 18 21 23 25 27 29 31 31 31 30 30
9 7 5 4 2 0 2 4 5 4 4 4 5 7 9 11 13 14 16 16 18 17 14 12 11 11 11 10 11 12 15 17 21 24 27 30 32 34 36 37 36 35 34
10 9 7 4 3 1 1 2 4 5 6 6 7 9 11 12 13 14 15 16 16 17 13 11 12 12 12 11 12 15 18 21 23 26 29 33 35 38 39 40 39 37 37
11 10 8 5 5 3 1 3 5 6 8 9 9 10 12 13 14 14 15 16 16 16 14 13 14 14 13 13 15 17 20 23 26 28 31 35 37 38 39 40 41 39 38
13 11 9 7 6 3 3 5 6 7 9 10 12 12 12 13 14 14 15 15 15 15 14 14 15 15 14 15 16 18 21 24 26 30 33 35 35 37 38 38 41 39 36
13 12 10 9 8 6 3 3 7 7 9 11 13 14 14 14 15 14 14 14 14 14 14 15 15 16 15 15 16 19 21 24 27 30 32 34 34 36 38 39 40 35 30
14 13 11 11 10 9 5 8 8 11 11 14 15 14 16 14 13 13 12 12 12 13 14 15 16 16 16 16 17 20 22 24 27 30 32 34 34 35 40 39 37 32 28
16 15 13 12 12 11 8 9 11 14 14 18 17 18 16 15 13 12 12 11 12 13 15 17 17 16 17 18 18 21 23 25 27 29 32 33 34 35 37 35 33 30 28
21 20 16 14 13 13 16 13 13 15 18 20 20 20 20 16 15 13 12 12 13 14 16 18 18 18 18 19 20 22 24 25 27 29 32 33 33 33 31 30 29 29 28
27 24 19 22 21 22 19 13 15 19 22 21 20 20 21 19 16 15 15 14 14 15 16 18 19 19 19 20 22 24 25 25 28 30 31 31 32 32 31 29 26 23 24
28 27 25 23 23 20 17 16 17 21 24 23 21 22 21 21 19 18 18 18 17 17 18 19 20 21 22 21 24 26 26 27 28 30 31 31 31 31 31 29 25 19 18
34 27 25 27 23 21 19 19 24 23 21 21 20 20 21 23 22 20 21 23 22 22 22 23 22 23 24 24 25 27 28 29 31 30 31 31 32 32 30 29 26 22 19
35 32 28 27 25 23 24 26 26 23 23 22 21 24 25 22 25 23 25 25 25 24 24 25 24 25 26 26 26 28 29 30 31 33 33 32 31 33 33 31 30 28 24
36 34 32 32 30 32 31 27 26 25 24 21 23 24 25 27 30 28 27 26 28 27 26 27 27 27 28 29 28 29 31 33 33 34 34 34 33 33 34 34 34 32 29
39 34 33 32 32 33 31 29 28 26 24 23 23 24 28 29 29 30 27 27 30 29 29 30 29 30 30 31 32 31 33 34 36 36 37 35 35 34 35 36 37 36 35
42 39 35 34 35 35 32 30 29 27 25 24 24 25 25 27 26 25 26 29 31 31 31 33 33 33 34 34 35 35 36 36 38 40 40 38 37 37 37 38 37 39 39
44 43 40 40 36 35 34 33 32 29 26 26 26 24 25 26 27 30 30 31 32 33 33 35 35 36 36 36 37 39 38 38 40 43 42 41 39 38 38 39 40 39 41
50 47 45 45 39 35 36 35 34 30 27 27 27 26 26 31 30 31 31 32 33 34 36 38 38 38 39 39 40 41 41 41 43 45 45 43 41 41 41 42 43 42 40
53 52 52 48 41 37 39 38 35 31 29 29 29 27 28 31 33 33 32 34 35 37 38 40 40 41 42 43 44 44 43 44 46 48 48 46 45 44 44 46 47 47 46
53 50 53 48 43 43 42 39 37 32 30 30 31 30 29 28 32 38 38 37 36 40 43 42 43 45 45 46 47 47 46 48 49 50 51 49 48 48 48 46 46 46 46
59 53 48 44 42 39 44 40 36 33 32 33 34 33 32 32 32 35 40 41 40 42 43 47 48 48 48 48 49 48 50 51 53 53 51 50 50 49 49 47 47 47 45
46 57 52 48 45 46 43 40 36 35 34 35 36 36 35 35 38 41 42 43 43 44 46 48 50 51 51 50 50 51 52 52 53 52 52 51 48 47 47 48 49 46 43
42 39 42 53 50 44 40 44 41 35 36 38 38 37 36 36 37 39 41 43 45 46 48 50 51 51 52 52 52 54 55 56 54 52 50 47 47 49 48 47 46 44 43
45 49 55 32 26 24 29 31 33 35 38 39 38 36 36 36 37 40 43 45 47 49 51 51 53 54 53 55 56 57 57 55 52 50 50 51 49 47 47 46 45 44 46
51 50 30 19 28 28 32 35 35 38 39 39 38 37 37 38 40 42 45 48 50 51 53 54 54 55 57 59 59 57 54 54 55 54 53 52 52 52 51 51 51 52 51
Wind_Direction
186 192 187 176 256 43 37 42 64 74 76 62 28 12 3 359 357 359 359 2 2 1 1 5 10 18 19 14 11 12 13 9 5 359 351 344 339 335 330 326 321 317 311
200 204 210 200 237 22 33 31 43 56 47 17 2 350 347 346 347 349 354 359 359 358 355 354 0 10 8 7 7 6 5 0 355 350 343 338 333 329 323 318 311 306 302
207 207 213 216 230 305 22 27 24 23 12 356 346 340 338 339 342 344 347 353 356 352 348 349 353 353 352 351 352 353 353 353 349 342 337 333 331 326 321 314 308 302 297
206 207 203 204 227 221 28 20 13 7 353 344 339 335 335 338 340 341 345 347 353 349 345 345 342 338 338 341 341 343 347 345 342 339 336 333 329 325 319 317 313 307 298
207 214 216 219 225 220 100 24 10 358 347 337 329 327 330 333 336 338 342 345 347 344 335 330 332 334 332 332 335 340 341 340 340 339 338 333 329 324 323 322 320 314 307
215 222 228 220 215 179 94 39 13 359 347 336 326 322 323 325 327 330 336 340 339 334 327 327 328 330 328 329 333 336 337 338 339 337 334 332 330 328 328 328 322 316 309
219 222 225 220 209 196 161 20 356 347 339 329 329 313 310 314 319 325 331 338 341 336 332 328 327 326 323 323 327 330 334 335 336 336 336 334 333 332 332 330 326 323 319
222 229 230 225 208 206 233 304 325 319 310 317 303 300 297 298 306 314 323 333 341 340 336 331 329 325 320 319 320 324 328 332 336 336 336 334 334 334 332 332 328 327 320
222 229 233 229 221 230 261 296 310 308 300 304 293 288 282 285 291 301 309 321 331 337 336 331 327 323 316 316 315 317 323 330 333 335 336 333 333 333 333 336 337 330 322
227 234 234 239 239 248 277 284 290 294 293 300 283 281 281 279 283 289 297 309 319 327 334 334 330 325 319 317 316 315 320 327 329 333 335 333 331 331 329 335 342 341 337
221 233 235 244 252 257 263 263 279 289 297 295 285 281 279 278 277 280 287 294 304 313 323 329 332 327 321 319 319 318 320 324 325 330 332 332 329 327 325 327 336 337 339
222 220 232 242 246 250 248 266 282 294 297 290 286 283 276 277 271 278 283 288 292 300 311 316 326 329 324 322 322 322 322 322 322 323 326 330 328 322 322 323 327 332 337
221 224 229 240 241 245 252 271 282 291 294 290 282 283 280 272 272 274 283 287 291 293 302 309 314 319 324 325 325 324 322 320 319 321 320 325 327 323 316 318 317 318 320
226 229 234 236 240 247 260 271 279 283 288 290 283 278 273 272 272 276 277 285 291 295 302 303 307 309 314 320 325 326 322 318 317 317 319 322 323 323 317 311 312 310 309
226 229 234 239 243 254 263 267 271 280 286 288 281 276 267 271 269 268 277 284 291 294 300 301 304 305 307 310 317 322 321 317 317 316 316 319 321 321 318 312 305 304 304
230 228 231 235 241 250 256 263 269 278 285 288 282 277 281 271 266 267 277 279 286 292 296 299 301 303 304 306 309 313 316 317 316 315 314 315 317 318 316 312 303 299 298
234 229 231 238 245 250 254 260 267 277 283 286 285 283 289 269 265 273 276 265 286 289 295 297 300 303 305 307 306 307 311 315 315 315 313 315 314 313 312 311 309 296 291
231 236 235 238 237 243 253 256 264 273 282 284 283 280 276 272 262 266 271 276 283 288 292 296 299 302 302 303 303 304 307 311 314 314 314 314 314 313 310 308 307 304 292
229 235 238 237 239 240 253 255 261 270 279 282 282 276 279 270 264 270 271 276 284 290 294 296 298 300 299 300 302 304 306 309 312 313 314 313 313 313 310 307 303 302 297
231 234 239 242 238 239 250 252 259 267 275 280 280 277 278 275 266 270 278 284 287 290 293 295 297 299 300 301 302 304 305 308 311 313 314 313 312 312 309 305 303 301 300
224 229 232 228 230 239 247 250 257 265 273 278 280 277 269 273 267 267 274 283 284 291 293 295 298 299 300 300 303 304 305 306 311 315 314 313 311 308 304 303 302 302 300
227 224 227 227 228 242 245 249 259 267 272 275 277 275 270 264 265 263 270 273 280 282 287 292 296 298 301 302 302 303 304 309 312 313 311 309 308 307 306 304 302 299 296
227 224 220 221 231 237 244 250 260 268 272 274 277 277 273 270 268 271 274 278 281 282 288 291 295 298 300 301 300 303 307 308 309 309 309 307 306 306 305 304 303 301 300
236 239 232 228 235 238 250 249 265 268 271 274 278 279 276 274 273 274 275 277 281 285 288 292 297 299 299 301 304 305 306 306 307 307 306 305 304 304 303 302 301 301 298
236 231 232 229 245 257 261 260 264 267 271 276 279 278 276 273 271 273 276 280 284 288 293 296 295 297 301 302 303 304 304 305 305 306 305 304 303 302 301 299 296 295 295
217 226 216 231 248 252 264 267 267 269 273 276 276 275 274 273 274 277 280 284 288 291 292 294 298 299 301 301 302 303 303 302 302 301 299 298 298 297 296 294 293 292 291